Theta_e
338 337 336 335 336 335 337 339 342 344 345 348 349 349 349 351 353 354 354 356 357 358 360 361 361 361 360 359 359 360 358 358 358 355 355 355 357 359 359 357 358 359 358 356 356 354 358 360 361 362 365 364 365 369 372 370 369 362 365 370 366 366 368
337 337 336 335 336 337 338 340 342 343 345 347 349 350 350 350 352 353 355 357 358 359 360 360 362 360 360 360 359 361 361 359 359 359 355 356 358 360 361 361 360 361 362 361 360 361 362 360 362 361 361 366 366 370 373 372 369 368 364 368 366 365 364
334 338 337 336 336 337 340 340 341 343 346 346 347 347 349 350 352 356 356 356 358 359 359 358 362 360 360 361 360 360 360 359 358 357 355 352 355 355 359 362 362 360 359 359 362 361 362 363 364 364 362 362 361 366 369 369 371 368 366 371 368 366 368
338 338 340 342 338 339 341 342 342 343 345 345 346 348 349 352 353 354 355 356 356 357 358 358 358 357 358 359 358 359 359 360 359 356 354 353 353 355 358 358 361 361 359 359 359 358 360 362 364 366 366 366 365 367 368 366 367 368 367 369 366 362 367
340 341 340 340 341 339 339 341 343 344 345 345 347 349 350 349 351 353 353 354 355 355 355 356 356 357 358 358 356 356 358 358 359 357 355 353 355 356 354 355 357 357 359 359 362 362 363 365 362 365 367 365 366 366 367 370 367 368 368 370 367 364 364
338 340 340 340 340 341 339 341 344 344 345 345 346 349 350 349 349 350 353 354 354 355 355 356 356 358 356 356 356 354 356 358 359 359 355 355 354 351 352 353 355 358 355 357 359 360 361 361 363 362 363 363 360 360 362 364 363 364 367 368 367 363 360
337 339 341 340 342 342 340 341 342 344 345 347 347 349 349 349 350 351 352 353 352 354 353 353 355 356 358 358 356 357 354 354 356 355 354 353 352 352 351 352 355 356 358 359 358 360 360 360 362 363 362 362 363 359 360 365 364 362 363 368 367 367 366
340 339 340 342 342 340 342 348 344 343 345 347 347 348 349 349 350 352 352 353 352 352 351 352 352 355 358 359 358 357 356 355 355 355 355 352 352 351 350 351 352 354 355 356 359 360 359 362 361 361 361 361 360 362 360 363 365 363 362 362 367 367 364
341 340 339 340 342 344 344 348 352 349 350 348 348 349 352 352 354 353 354 355 355 354 355 351 352 353 358 356 357 359 358 358 357 357 354 352 350 349 349 349 350 353 352 352 354 359 359 358 360 360 361 360 360 360 361 364 364 364 362 361 362 363 361
342 342 344 342 346 346 345 347 348 352 345 352 352 351 353 355 356 356 355 358 359 354 352 351 357 362 359 359 359 357 357 359 358 357 356 354 353 350 350 348 348 350 350 351 351 350 358 359 359 357 361 361 361 361 362 361 360 362 363 362 362 363 364
345 344 344 344 344 344 346 344 346 348 351 352 354 355 357 357 359 359 359 358 357 360 357 356 356 359 360 359 361 360 360 356 356 356 356 356 354 352 350 349 347 348 348 349 348 349 350 356 359 358 359 356 358 360 360 361 362 363 361 361 361 361 362
338 340 341 343 346 348 347 349 349 351 352 355 356 358 360 362 361 360 361 361 360 353 358 357 359 356 354 358 362 364 364 362 361 359 354 354 355 355 352 349 347 347 347 348 349 350 349 350 353 355 356 358 359 360 361 361 363 363 364 361 360 359 360
339 340 340 341 343 346 346 349 350 353 354 355 355 358 359 360 360 361 360 361 361 362 361 362 359 359 359 359 361 361 361 360 362 361 360 364 362 365 361 353 348 348 347 349 349 349 348 347 349 353 356 358 358 360 361 363 362 366 367 366 363 361 359
337 340 339 340 342 342 344 345 346 348 349 351 355 358 358 359 360 361 361 362 362 364 363 362 362 362 361 363 362 361 358 360 361 358 358 361 359 359 363 359 356 350 351 350 350 349 349 347 346 347 351 355 359 362 365 367 365 367 368 366 366 363 360
339 336 338 340 339 342 343 343 344 346 347 349 350 350 352 355 358 359 360 362 363 363 363 363 360 359 360 362 361 359 360 365 358 356 356 360 362 362 361 359 355 354 356 355 350 349 350 351 348 348 349 350 355 363 365 364 366 362 362 364 364 362 357
337 338 339 339 340 340 340 342 343 345 346 347 347 347 348 349 352 354 355 357 359 361 360 360 359 359 358 358 359 362 364 364 361 357 356 356 356 359 358 359 361 360 358 357 355 355 353 355 352 349 348 349 353 359 362 366 363 357 355 356 362 360 359
332 333 336 337 338 338 339 340 340 340 341 341 343 343 344 346 350 351 352 353 355 357 358 358 357 358 357 357 360 359 361 362 359 357 355 356 357 354 357 358 359 359 358 356 356 357 358 357 351 351 351 350 350 354 352 354 356 349 342 344 350 361 364
329 330 332 334 336 337 337 338 338 339 340 340 339 338 338 339 342 346 350 352 354 356 358 358 357 357 358 360 358 357 356 360 358 356 356 353 355 358 359 362 363 362 360 356 356 358 357 356 350 350 352 355 354 352 353 350 336 332 338 342 343 352 362
328 329 331 333 335 336 336 337 338 338 339 341 341 339 339 340 340 341 343 346 352 356 357 356 357 357 357 358 358 359 356 354 358 360 358 356 356 358 361 359 358 360 359 358 356 354 353 353 354 354 356 357 354 352 350 348 328 329 332 334 335 339 354
328 330 332 333 334 335 336 337 337 338 339 339 340 340 341 341 342 343 346 346 347 351 354 355 356 356 357 357 357 357 357 358 358 359 361 360 359 355 353 356 357 358 359 356 355 353 350 353 352 354 357 357 354 351 348 343 327 325 326 328 329 332 340
325 327 330 333 334 334 335 336 336 337 338 338 339 341 342 341 342 344 346 348 347 349 352 354 354 354 356 355 354 356 355 356 357 356 356 357 357 355 355 352 355 357 359 358 356 353 350 350 349 355 355 353 353 351 341 333 320 322 323 323 325 327 338
326 327 328 332 334 334 334 335 336 337 338 340 340 340 341 341 342 342 344 348 348 350 351 352 352 351 351 351 352 352 352 353 352 353 353 353 354 354 354 355 356 353 352 353 352 352 353 352 351 351 353 354 353 354 344 333 316 318 318 319 321 326 346
328 327 328 332 333 333 335 336 336 338 340 341 341 340 341 342 342 341 341 341 343 344 344 344 343 344 345 347 348 349 350 351 349 351 351 352 353 353 352 351 351 349 350 349 350 352 351 348 348 349 351 352 352 348 342 333 318 314 314 315 316 330 350
330 330 330 332 333 333 335 335 335 336 338 340 339 340 341 342 342 340 339 339 340 341 340 341 341 342 342 343 346 348 349 349 349 347 347 347 347 346 346 348 348 347 349 348 349 348 349 348 346 345 346 347 346 344 338 327 317 312 312 313 314 325 346
330 328 329 331 332 331 332 333 333 334 337 338 338 341 341 342 342 341 340 340 340 340 340 339 340 341 343 345 347 347 346 345 345 346 345 343 344 346 346 346 345 347 348 348 348 345 344 343 341 340 341 342 342 340 338 330 322 313 311 311 312 323 341
329 328 327 329 330 332 332 334 333 333 334 334 336 338 339 339 339 340 340 340 341 340 339 339 340 341 343 343 344 345 346 345 345 346 344 344 346 345 345 346 346 346 344 343 344 341 340 339 338 336 337 338 337 337 337 333 327 319 311 310 311 314 332
329 327 325 326 328 332 329 328 328 329 331 334 337 337 337 337 336 336 339 340 340 339 340 343 344 345 346 345 344 344 345 346 345 344 344 344 343 344 345 347 345 343 342 339 338 336 335 333 331 330 330 331 332 331 330 329 329 326 312 310 310 311 319
325 323 325 327 329 328 326 325 327 327 328 330 334 335 335 335 334 335 335 335 335 338 341 342 343 343 343 343 343 344 344 344 346 346 345 345 344 342 342 343 341 340 339 338 336 333 331 330 328 326 325 325 326 326 326 327 325 325 318 312 310 309 312
322 321 321 323 324 325 325 326 326 325 326 326 329 331 333 333 333 333 333 332 334 336 338 339 340 340 341 341 341 341 342 343 343 342 342 342 342 342 340 340 339 340 339 336 334 332 331 330 329 328 328 327 326 325 326 326 327 323 323 317 312 310 311
322 322 322 321 322 323 325 326 326 327 328 327 329 330 332 333 332 332 332 331 334 334 334 333 332 334 333 334 336 337 338 339 339 341 341 341 340 340 338 337 337 337 337 336 334 332 331 331 330 330 329 329 328 328 328 328 328 323 320 322 317 313 312
321 323 323 322 322 324 324 322 322 324 327 329 331 332 333 332 331 331 330 331 333 332 331 331 331 329 327 326 326 328 331 334 336 337 337 338 337 338 337 337 337 335 337 337 334 334 332 332 333 332 331 329 326 325 325 326 327 324 324 324 323 319 315
320 321 320 321 322 323 324 324 325 324 323 326 328 330 332 331 331 331 332 332 332 333 332 333 332 329 327 325 324 323 324 325 326 330 334 335 335 335 335 335 333 335 336 336 335 334 332 331 332 331 332 329 326 325 326 328 327 329 329 327 325 326 321
320 321 322 321 322 322 321 321 321 322 323 324 326 328 330 332 332 332 332 333 330 331 334 333 331 330 329 327 323 324 324 323 321 323 327 330 330 330 331 333 333 331 332 333 331 331 330 330 328 325 323 322 323 324 325 324 325 326 327 328 326 327 328
322 322 323 323 323 324 323 323 322 322 323 324 326 327 327 329 332 334 334 331 329 331 333 332 331 328 327 326 327 327 326 322 321 319 318 323 328 329 329 328 328 329 329 328 328 326 323 322 322 322 323 324 323 324 323 322 325 324 322 321 319 321 324
324 325 326 327 327 328 327 327 326 326 324 324 324 325 326 327 326 328 331 333 335 336 333 332 331 330 327 326 325 324 326 324 323 320 318 319 322 322 321 322 325 324 322 320 318 317 322 325 322 322 323 325 325 323 322 322 322 322 309 311 304 308 314
326 327 328 329 330 330 330 330 330 329 328 328 329 328 328 327 328 330 329 332 335 336 335 334 331 329 325 326 325 325 324 323 324 326 323 319 318 320 319 312 303 310 323 319 312 302 297 305 319 318 324 319 321 325 322 321 322 306 299 296 295 296 297
326 327 328 330 330 331 331 332 332 332 331 331 331 330 330 330 329 330 330 332 334 334 335 334 332 330 328 325 324 326 327 325 324 326 329 325 323 322 322 321 320 298 296 305 306 300 295 294 295 299 303 321 321 319 308 310 304 298 296 295 295 294 294
327 329 329 329 330 331 331 331 332 332 332 332 332 332 332 330 331 331 330 330 330 332 334 334 332 329 328 329 329 329 328 326 328 327 328 329 329 327 325 323 321 320 303 295 300 300 295 295 294 294 297 298 307 325 323 307 299 295 295 294 295 295 294
Wind_Speed
16 16 16 16 15 15 15 16 15 14 13 13 13 14 13 12 12 11 11 13 13 13 13 12 12 11 12 11 11 10 10 9 9 9 8 8 7 7 7 7 7 6 5 6 6 5 5 5 4 5 5 6 6 6 5 5 5 5 5 4 3 5 6
15 16 15 16 16 15 17 16 16 14 13 13 13 13 13 13 12 12 11 13 13 13 13 13 12 11 12 11 10 11 11 10 10 8 9 8 8 7 7 7 6 6 5 5 3 4 4 6 5 5 6 6 7 6 6 5 7 6 6 7 6 5 6
18 14 15 15 15 16 16 16 15 14 14 14 14 14 13 13 12 12 12 12 13 13 13 14 13 12 12 11 11 12 11 11 11 11 11 10 10 10 9 7 7 7 7 7 5 5 6 6 7 6 6 6 7 7 6 8 7 7 5 5 6 5 5
9 10 7 7 10 16 15 15 16 15 14 15 14 14 14 13 12 12 12 13 14 14 14 14 14 14 12 12 12 11 12 12 11 11 12 10 10 10 9 9 7 7 7 7 8 7 5 7 7 7 7 6 6 6 7 8 7 7 7 6 7 8 7
7 8 3 2 10 11 14 14 15 14 15 15 14 14 14 13 13 13 13 13 13 14 14 14 13 13 12 12 11 10 12 13 12 11 11 10 9 9 9 10 9 9 8 8 8 6 6 5 7 7 8 7 7 7 7 7 8 7 7 7 7 7 7
8 6 3 3 7 12 14 14 14 15 14 14 15 14 12 14 12 14 13 13 12 13 13 13 13 12 13 13 12 11 11 11 10 10 10 9 10 10 10 10 10 10 10 9 8 8 8 8 7 8 8 9 9 9 8 9 8 8 6 7 6 7 8
9 10 11 12 16 16 13 13 14 15 12 11 12 12 11 12 11 12 12 13 13 13 12 13 13 12 11 10 11 11 12 12 11 12 11 11 10 10 10 9 10 9 9 8 9 8 9 9 9 9 8 9 8 9 8 6 7 7 8 5 7 6 8
9 7 8 5 1 4 0 7 13 12 10 8 10 12 13 11 13 11 11 10 12 12 13 13 11 12 9 9 9 12 11 12 11 11 10 11 11 11 11 10 10 10 9 10 8 9 9 9 9 9 9 9 9 8 8 8 8 7 7 8 7 7 5
9 8 7 6 6 4 5 8 5 4 1 13 14 11 11 9 9 9 10 10 9 9 9 11 11 11 13 12 11 9 10 10 10 10 12 12 11 12 12 11 11 9 10 10 9 9 9 9 9 8 8 9 8 8 8 7 8 8 8 8 8 9 10
8 8 8 7 4 4 3 4 7 3 6 8 7 8 10 8 8 8 7 1 3 7 10 11 3 10 5 4 8 9 10 10 9 11 11 11 11 12 12 11 11 10 11 11 10 9 8 9 8 9 8 7 8 8 8 9 9 8 9 9 10 8 8
6 6 7 6 5 3 3 3 4 2 3 3 3 4 4 5 5 5 5 6 6 5 3 6 3 7 11 10 7 6 7 9 10 11 11 11 10 12 12 12 12 11 12 11 11 10 9 9 9 9 9 9 9 9 9 10 10 10 10 10 9 11 8
6 6 7 7 8 7 5 4 1 3 4 5 5 3 4 5 5 5 4 6 6 7 3 1 6 1 3 1 2 2 6 6 8 11 10 10 11 12 12 12 12 12 11 11 11 11 11 10 10 10 10 10 9 10 10 10 10 11 10 10 10 10 9
5 8 8 7 6 7 7 7 8 7 6 5 3 4 4 5 6 6 7 7 6 5 5 4 5 6 2 5 6 6 6 6 7 6 10 4 5 7 10 12 12 12 12 10 11 11 11 11 11 9 9 10 10 9 8 8 9 9 10 10 10 10 9
8 7 8 4 8 8 9 9 9 9 8 6 5 4 4 4 4 5 5 6 6 6 6 6 7 6 6 5 5 6 7 7 3 5 8 8 9 8 3 3 14 15 11 10 10 11 12 11 12 11 10 10 10 10 7 2 5 7 8 7 6 6 9
10 10 8 9 10 11 10 9 7 8 7 7 7 6 5 2 3 2 3 4 4 5 7 6 3 4 5 6 7 7 6 4 5 7 6 4 4 4 3 0 2 4 11 14 12 10 10 11 11 10 10 10 10 10 8 8 8 2 4 3 4 4 3
12 12 12 12 12 11 10 10 10 10 9 9 8 7 6 3 1 1 3 4 4 5 5 4 5 6 8 9 7 5 6 6 4 3 2 4 5 5 4 3 2 2 2 1 11 15 9 8 9 10 10 9 8 8 4 2 4 6 4 6 2 3 1
11 11 12 11 12 11 10 10 9 8 9 8 8 7 6 6 5 3 5 2 3 4 4 5 4 6 7 8 6 3 6 5 4 6 7 3 3 3 4 5 4 2 2 3 3 2 8 13 10 9 10 9 8 4 10 2 5 5 3 8 11 8 5
11 11 11 10 10 10 10 10 9 8 8 7 6 6 5 5 5 5 2 4 5 5 5 7 8 7 7 5 7 6 6 6 6 5 4 6 7 7 7 6 5 5 4 2 3 1 2 4 5 9 10 10 11 4 4 6 11 10 6 0 4 7 7
11 10 10 10 10 10 10 9 9 8 7 6 6 5 5 3 3 3 5 5 5 5 5 7 7 7 7 7 7 6 9 9 8 7 8 7 7 7 6 6 7 6 5 4 2 1 1 2 3 3 3 3 5 8 6 5 10 8 10 7 8 8 9
10 9 9 9 9 9 9 8 8 8 8 7 6 5 4 3 2 2 3 4 5 5 5 5 5 6 5 5 6 6 5 3 4 5 6 6 6 5 4 6 6 6 5 3 3 3 3 3 1 1 1 5 7 5 5 7 11 11 11 10 10 10 10
9 9 9 8 9 9 9 8 8 7 7 7 6 5 4 3 3 2 2 2 3 4 4 3 3 2 2 2 2 1 3 3 2 3 4 4 4 4 4 6 6 6 4 3 3 4 4 3 4 3 4 4 6 6 5 5 7 9 10 10 11 11 10
10 9 8 6 9 9 8 8 8 8 7 6 5 5 4 4 4 4 3 3 6 7 7 6 5 4 3 2 3 4 3 3 3 2 3 4 4 6 6 4 2 0 3 3 4 4 5 4 4 3 3 4 3 3 8 7 11 9 9 9 11 10 6
9 9 8 7 10 9 8 7 7 7 7 7 7 6 6 5 6 7 8 9 8 9 9 9 9 8 8 8 7 6 4 3 2 2 3 4 6 6 5 4 4 5 3 2 3 3 5 5 4 3 5 6 6 7 7 7 9 11 12 12 13 10 6
9 8 8 8 10 8 8 7 6 6 8 10 8 7 6 6 7 8 8 9 9 9 10 10 9 8 7 7 6 5 5 6 8 9 7 6 3 5 5 5 4 3 2 3 4 4 4 5 6 7 6 6 7 7 6 7 9 12 12 13 14 11 7
9 8 9 8 10 9 8 8 7 6 10 11 10 9 9 9 9 9 10 9 9 9 10 9 8 7 7 8 8 8 8 9 8 7 7 8 6 4 5 4 4 5 4 5 4 5 4 5 7 8 6 6 7 10 8 6 6 11 13 14 15 11 8
9 9 9 9 9 11 10 8 7 8 10 11 10 10 11 11 10 10 10 10 10 10 10 9 8 6 6 7 8 7 8 8 7 7 8 6 6 6 6 5 4 6 6 6 6 6 6 6 6 7 7 7 8 8 5 5 6 10 13 13 14 16 9
8 8 9 9 9 8 8 8 8 8 10 9 9 10 9 9 10 10 8 10 11 11 11 9 9 9 9 9 9 9 9 8 9 8 8 8 7 5 5 6 6 8 8 8 8 8 8 9 7 7 8 8 8 7 7 6 6 7 10 10 12 16 13
8 9 10 9 7 8 9 9 9 10 10 9 10 10 9 9 10 9 10 11 12 11 10 10 10 10 10 10 11 11 10 9 9 10 10 9 8 8 9 8 8 8 8 8 8 9 9 8 7 8 8 7 6 6 6 7 9 4 5 9 11 11 11
9 9 9 8 8 9 8 9 10 10 11 10 10 9 9 10 10 10 10 11 11 10 10 10 9 9 8 9 10 10 10 10 10 9 8 9 9 10 9 8 9 9 9 9 8 8 8 8 7 7 6 5 6 4 3 2 2 5 6 8 9 8 7
9 9 9 10 10 10 10 10 10 10 11 10 9 10 9 10 10 10 10 11 9 8 8 8 8 8 9 9 9 9 10 9 9 9 9 10 9 10 9 9 9 8 7 7 7 7 7 6 6 6 6 5 3 2 1 0 2 6 9 7 8 6 5
10 9 10 9 9 9 9 10 11 11 11 10 10 9 9 9 9 10 10 8 8 8 8 8 8 8 8 8 8 8 8 8 7 7 7 8 8 7 7 8 7 7 6 6 6 6 6 5 5 5 4 2 2 2 1 2 3 4 5 7 7 5 5
10 11 11 11 10 9 9 9 9 10 11 11 11 9 8 8 8 9 8 7 6 7 7 7 7 7 8 7 7 7 7 8 8 7 7 6 6 6 5 5 5 5 4 4 5 4 4 3 3 2 1 2 2 2 3 3 4 4 4 4 4 2 2
10 9 9 10 9 9 9 9 10 9 10 10 8 8 8 7 7 7 6 6 6 6 5 5 6 6 6 7 8 8 8 8 6 6 6 6 5 6 5 4 4 4 3 3 3 3 4 3 3 2 2 3 4 4 4 6 6 6 6 5 5 4 4
10 10 9 9 8 9 9 9 9 10 9 8 8 8 8 8 8 8 8 8 7 6 5 5 5 6 6 6 5 5 6 7 8 7 7 7 8 8 7 6 6 6 6 7 6 4 4 4 4 4 4 5 4 5 5 6 6 7 6 6 6 6 6
10 9 9 9 9 9 8 9 9 9 9 9 8 8 8 8 8 8 7 7 6 5 5 4 3 3 4 4 5 5 4 5 6 7 7 8 9 9 8 7 7 6 7 8 6 6 5 3 5 5 5 6 6 5 5 5 6 5 4 5 6 5 5
10 10 10 9 9 9 9 9 9 9 9 8 7 7 7 8 7 7 7 6 5 5 4 4 4 4 6 6 6 5 4 5 5 5 6 7 7 8 7 9 10 9 6 6 7 9 9 9 7 5 5 7 7 6 5 5 4 3 5 6 7 6 6
10 9 9 9 9 9 9 8 8 8 8 7 7 7 7 7 6 6 6 5 5 5 4 3 2 1 4 5 5 5 5 4 5 5 5 6 7 7 7 6 7 10 10 8 6 7 9 10 9 11 11 5 5 6 8 7 3 3 6 7 8 7 7
10 9 9 8 8 8 8 8 7 7 7 6 6 6 6 7 6 5 6 5 5 5 5 5 4 4 5 4 4 2 3 4 4 4 4 4 4 5 5 5 6 4 5 7 8 8 8 10 10 10 10 11 8 4 3 3 1 3 6 7 9 9 9
Wind_Direction
202 198 189 187 185 188 185 182 183 182 179 176 179 184 176 176 178 171 173 173 176 179 183 184 189 186 189 191 195 192 198 194 196 198 202 210 216 208 209 209 201 214 223 208 205 208 192 211 204 204 177 186 201 191 194 194 203 206 204 209 235 229 240
204 201 195 186 184 189 188 184 180 183 183 179 180 189 183 179 177 179 176 174 179 181 185 186 189 193 191 195 194 195 196 201 198 199 203 205 210 221 217 208 218 196 222 242 200 203 191 198 206 210 207 191 207 195 188 209 210 215 209 194 220 229 225
192 197 201 190 184 188 188 183 180 184 184 182 183 186 188 182 176 180 175 179 181 186 187 188 190 194 196 194 199 196 199 202 200 200 208 203 203 211 206 212 207 209 210 209 219 209 199 203 197 209 220 218 210 196 195 207 211 211 205 172 219 224 235
161 174 208 274 201 185 186 182 180 185 185 186 185 184 184 181 183 179 186 183 183 190 191 192 190 195 195 196 201 200 202 207 208 207 208 214 203 206 208 204 212 222 210 214 204 216 211 199 196 199 213 221 230 214 206 214 213 212 213 207 222 220 222
148 154 188 227 296 210 184 182 183 184 186 188 183 184 181 182 189 181 190 190 188 190 195 195 193 193 195 197 201 202 204 204 209 218 213 215 217 209 211 214 204 217 216 211 215 202 219 222 206 197 198 213 218 218 219 211 222 214 213 210 227 231 228
149 145 123 296 280 256 190 184 182 183 188 193 183 182 185 181 192 189 188 190 174 203 199 198 199 187 197 197 203 203 201 206 212 212 227 218 217 219 215 216 223 211 212 220 211 205 203 215 223 214 208 204 214 218 213 215 217 218 216 217 231 240 234
161 158 164 193 209 223 181 185 187 184 187 198 187 173 188 187 191 200 188 188 199 179 195 206 201 193 191 204 203 205 203 206 203 214 216 224 221 229 225 222 221 224 223 212 218 216 204 208 220 226 222 226 214 218 214 203 232 214 218 203 231 237 241
149 158 172 167 227 46 316 193 189 194 182 191 213 177 193 185 185 201 196 186 199 197 204 196 194 199 176 220 215 202 209 210 200 210 218 219 227 224 230 229 221 222 224 229 221 219 220 210 211 221 225 227 230 232 223 207 208 228 221 211 194 230 268
149 157 160 169 159 60 14 15 345 141 103 198 208 183 183 189 181 194 196 196 195 211 208 224 184 203 166 201 210 209 215 213 211 208 213 221 225 228 229 226 229 225 228 229 227 219 228 223 224 217 222 229 232 229 231 228 219 220 233 235 225 221 234
148 145 140 150 126 94 11 1 1 92 159 254 177 193 181 187 183 191 188 137 301 220 208 228 283 52 12 220 207 216 212 218 225 221 218 222 223 228 227 228 222 224 229 229 232 227 216 232 231 231 225 229 230 231 232 226 225 231 227 226 232 233 235
74 98 88 85 120 109 56 13 332 350 113 199 154 171 163 172 153 175 148 145 216 286 289 271 206 185 171 207 213 221 259 250 218 220 232 231 230 225 225 228 232 223 220 225 231 230 228 215 225 233 226 225 227 231 229 231 228 226 234 232 220 229 222
48 69 88 76 75 93 122 140 185 44 76 106 105 126 124 113 132 152 160 165 149 138 186 229 295 113 233 27 108 246 247 266 305 277 233 234 238 233 232 230 233 232 222 223 222 229 230 228 219 219 224 226 231 231 228 228 230 228 230 235 238 233 228
88 87 81 93 103 72 82 85 64 60 66 78 114 128 139 152 161 167 160 167 154 139 153 209 209 260 138 163 183 208 221 255 269 284 295 321 321 352 338 299 261 235 236 224 223 227 230 228 230 222 223 222 228 234 236 242 241 233 229 234 243 245 241
90 99 109 151 113 97 86 79 79 76 68 66 74 100 116 154 162 170 177 163 163 157 167 177 197 207 223 199 185 209 214 220 107 18 316 332 339 317 293 331 308 296 266 242 234 228 229 234 228 222 223 229 223 222 220 222 304 284 252 241 260 296 282
86 94 106 93 93 96 87 77 81 87 92 90 88 69 60 79 138 151 180 174 152 186 191 189 187 225 233 226 218 216 228 177 144 200 230 259 280 288 323 24 175 281 322 318 282 245 238 235 244 246 228 227 236 230 203 199 212 190 346 345 279 238 241
63 66 74 77 77 79 75 71 67 63 64 61 58 60 59 58 79 211 180 177 189 193 183 204 198 213 219 228 219 223 209 170 162 168 251 282 268 235 212 239 286 336 295 67 325 303 283 258 256 255 252 241 237 238 199 254 71 46 335 272 276 288 335
61 60 60 66 76 75 78 81 81 74 63 52 41 38 38 18 14 350 338 332 193 194 193 216 235 237 239 241 223 165 235 215 183 200 196 194 257 267 262 242 253 231 234 274 228 212 323 316 289 286 279 270 260 355 56 351 19 358 105 0 314 280 252
61 60 58 63 66 71 75 75 73 72 75 73 62 40 27 11 351 340 332 311 274 249 219 217 212 227 237 232 239 168 246 227 189 203 187 200 226 226 218 214 216 216 220 199 254 314 139 82 17 343 348 349 15 59 82 64 20 7 37 149 302 311 286
69 65 68 63 62 65 64 66 65 63 60 57 55 51 25 8 344 339 330 319 314 297 247 232 232 239 240 239 253 238 213 221 217 206 205 202 233 244 218 207 221 222 218 198 142 17 100 147 139 207 245 325 21 30 36 80 39 15 17 10 348 343 319
75 77 74 69 66 63 63 60 60 53 49 46 42 38 36 3 341 314 274 275 288 301 291 264 248 248 255 261 258 263 273 263 228 212 210 212 208 214 215 204 206 221 220 191 134 147 131 118 71 61 44 76 101 98 73 48 15 7 6 1 350 342 327
83 75 69 72 69 62 56 58 58 57 56 48 40 39 34 35 25 346 3 304 236 237 268 275 277 322 349 323 313 320 287 262 205 229 212 196 205 226 231 244 239 217 192 172 148 150 147 138 141 134 116 97 109 127 104 67 25 27 8 3 351 341 318
94 89 83 70 71 64 59 57 58 59 64 69 67 64 55 62 63 63 70 59 60 57 52 51 49 38 7 327 324 312 315 283 266 233 242 223 216 221 214 212 218 240 36 70 73 79 101 109 123 132 109 111 110 123 96 57 24 14 12 2 352 329 295
91 96 104 92 82 79 73 66 66 77 87 71 65 57 57 64 66 65 62 56 55 57 54 55 49 44 43 44 47 42 30 9 341 268 239 237 229 212 176 164 118 74 65 105 129 120 95 99 82 44 47 66 78 84 78 62 27 25 21 12 357 336 309
103 96 86 87 94 93 86 77 75 69 77 92 67 59 59 60 63 64 65 65 68 67 68 65 63 62 60 58 52 49 43 50 54 52 50 35 68 76 50 58 67 108 126 135 134 97 74 92 90 71 47 58 74 82 86 63 30 27 24 19 10 350 327
98 95 97 89 85 70 64 60 45 63 93 87 74 77 68 70 72 79 79 77 75 76 76 75 75 72 72 69 70 69 71 69 71 75 75 66 37 68 117 108 91 54 69 65 66 86 84 74 85 88 78 81 87 80 78 76 53 35 28 18 19 12 354
110 112 111 105 96 104 106 98 82 64 56 67 75 83 84 80 73 68 76 82 84 82 82 86 91 97 87 80 73 71 75 83 88 81 80 83 72 44 49 54 56 76 76 69 60 70 68 68 66 74 69 56 57 65 68 77 68 45 34 28 18 20 15
99 97 98 97 97 96 93 87 80 78 85 84 75 71 69 75 81 80 74 74 73 74 76 77 77 72 74 78 78 76 69 70 81 90 95 90 95 101 72 72 82 88 89 87 83 79 75 72 64 56 52 48 56 60 50 41 44 54 47 37 34 30 22
108 100 90 87 90 94 97 100 100 94 80 75 88 92 88 78 73 77 76 75 76 79 78 77 74 72 72 71 76 78 75 75 75 79 79 80 80 77 74 80 80 80 82 84 84 82 79 75 73 72 67 63 53 51 49 42 41 8 42 45 47 45 29
105 108 113 117 114 108 104 96 89 82 81 79 69 67 79 84 81 79 80 78 77 77 77 73 74 80 94 100 94 92 85 78 77 77 79 79 79 80 83 84 83 83 84 85 83 84 87 86 90 89 82 68 52 40 38 17 16 26 28 40 44 36 31
111 112 114 106 103 99 96 95 90 86 81 76 79 79 76 81 82 79 76 73 66 71 72 74 79 81 74 62 59 66 81 91 84 81 77 76 75 78 78 76 74 74 77 86 88 91 88 90 91 93 97 97 106 98 101 107 42 33 25 17 18 11 355
123 116 107 100 92 93 100 99 99 98 91 85 80 75 75 74 77 77 74 70 66 63 64 64 64 64 68 75 84 83 72 65 71 81 91 100 96 90 88 92 94 94 101 105 103 105 106 109 111 105 107 117 111 116 93 58 62 47 26 13 13 346 305
118 118 117 115 111 104 99 91 89 95 101 105 101 94 86 80 74 75 78 79 76 73 66 65 67 68 67 67 64 68 85 92 84 74 71 68 66 74 86 104 109 116 124 109 106 107 107 103 103 102 112 115 94 75 68 65 47 60 46 16 348 301 257
124 116 109 107 114 119 110 108 102 90 81 71 72 86 88 84 96 105 108 100 92 79 73 80 83 77 77 77 77 68 54 50 59 73 70 67 93 99 89 65 61 69 73 83 75 79 69 72 61 46 71 70 75 77 71 55 45 33 22 18 5 2 351
114 111 107 108 104 99 99 96 93 90 84 79 71 62 66 74 68 58 52 61 67 71 59 42 41 67 72 76 74 78 93 90 80 69 66 50 41 35 32 52 62 62 43 26 14 28 72 63 44 32 29 40 51 60 56 57 49 31 12 8 360 349 344
118 116 116 108 100 98 99 99 98 99 95 91 86 79 70 56 52 65 66 52 49 45 51 52 58 65 91 92 90 72 51 75 87 85 85 85 72 55 39 20 29 57 73 46 29 7 0 22 85 65 63 45 34 45 61 56 43 34 13 343 337 328 336
126 120 115 113 113 108 105 102 99 95 93 87 83 81 78 72 61 45 46 45 44 34 42 31 36 39 32 24 23 40 66 75 74 80 102 99 94 94 81 64 55 30 41 72 45 43 26 27 58 10 29 71 53 27 37 47 49 41 339 312 311 314 297
131 130 128 124 120 114 107 105 102 102 100 100 100 95 88 80 74 67 54 40 33 27 27 9 9 40 104 63 44 23 16 47 73 74 62 76 93 100 104 104 68 59 53 47 41 34 38 56 52 40 30 27 88 73 59 87 82 336 305 312 312 310 305
140 131 128 127 125 122 120 115 110 106 100 100 99 91 92 89 82 80 83 65 48 31 20 12 5 8 14 44 76 77 55 67 62 81 97 104 122 124 125 118 115 94 51 53 40 34 39 39 38 36 42 38 31 43 125 123 165 309 313 309 316 315 321